{"data":{"norad_id":43477,"epoch":"2026-09-20T04:20:25.675008Z","epoch_age_seconds":83156,"freshness":"FRESH","line1":"1 43477U 18047B   26263.18085272  .00002994  00000+0  74177-4 0  9990","line2":"2 43477  88.9997 184.9155 0009847  93.8288 266.4094 15.39988749464408","mean_motion":15.39988749,"eccentricity":0.0009847,"inclination_deg":88.9997,"raan_deg":184.9155,"arg_perigee_deg":93.8288,"mean_anomaly_deg":266.4094,"bstar":7.4177e-5,"rev_number":46440,"period_min":93.507176655354,"perigee_km":439.42268802327,"apogee_km":452.86242418106,"semimajor_km":6824.2795561022,"source":"CELESTRAK","updated_at":"2026-09-20T09:00:14.348730Z"}}